Probability
0 0 0 3 6 19 48 71 97 100 100 100 100 100 100 100 97 87 61 65 71 71 77 81 58 45 23 26 6 6 3 6 0 0 3 0 0 0 0 0 0 0 0
0 0 6 13 6 10 23 65 84 100 100 97 97 97 100 100 100 97 94 77 87 94 39 74 87 84 71 32 23 19 16 6 3 13 13 6 0 3 0 3 6 0 0
0 3 23 32 35 6 19 29 74 97 97 97 90 90 94 97 97 97 100 97 90 94 97 84 81 81 71 71 61 39 35 45 6 3 10 3 6 13 0 0 0 0 0
0 3 19 35 39 48 29 26 52 74 90 77 74 74 74 74 68 77 81 87 84 90 97 90 87 77 81 84 65 42 61 58 39 6 0 0 3 6 0 0 0 0 3
0 3 10 29 32 58 45 32 55 77 74 65 55 32 23 29 45 55 58 71 87 84 81 87 90 84 87 68 55 65 65 55 61 35 0 0 0 0 0 0 0 0 0
0 3 10 10 19 35 61 61 71 61 52 42 16 13 3 6 10 39 52 61 71 74 68 77 74 58 55 48 61 68 65 68 61 52 19 13 10 0 3 0 3 0 0
0 0 0 13 10 16 32 39 42 39 19 10 6 3 0 0 0 16 29 48 48 65 61 39 45 35 29 29 32 29 35 39 58 55 42 42 32 29 13 19 6 0 0
0 0 0 3 3 3 6 16 13 16 10 6 3 0 0 3 10 16 19 29 32 29 16 19 26 19 13 6 26 29 13 13 19 16 32 45 42 42 42 29 19 3 3
0 0 0 0 3 6 3 3 3 3 0 0 0 0 0 0 16 16 19 26 23 23 10 6 16 10 19 16 10 16 0 3 3 6 10 26 29 39 45 35 26 13 3
0 0 0 0 0 0 0 0 0 0 0 0 0 0 6 16 16 23 29 19 19 13 6 0 0 0 3 6 10 6 6 0 0 19 10 19 29 29 39 39 23 19 10
0 0 0 0 0 0 0 0 0 0 0 3 3 16 16 26 32 29 19 16 16 6 6 0 0 0 0 0 3 0 3 0 0 0 0 3 6 26 42 45 32 16 10
0 0 0 0 0 0 0 0 0 0 3 10 16 23 29 29 29 26 19 13 16 3 0 0 0 0 0 0 0 0 0 0 0 0 0 0 0 13 19 39 13 16 13
0 0 0 0 0 0 0 0 0 3 10 29 32 35 23 16 19 13 13 13 10 6 3 0 0 0 0 0 0 0 0 0 0 0 0 0 0 10 23 19 23 13 3
0 0 0 0 0 0 0 0 0 3 10 23 19 16 13 19 13 13 13 10 3 3 0 0 0 0 0 0 3 0 0 0 0 0 0 0 0 0 0 0 3 0 13
0 0 0 0 0 0 0 0 0 0 3 6 6 10 13 10 6 6 6 6 3 3 0 3 10 10 10 3 3 0 0 3 0 0 0 0 0 0 0 0 3 3 16
0 0 0 0 0 0 0 0 0 0 0 0 0 0 0 0 3 0 3 6 6 3 3 13 19 16 3 0 0 3 23 6 0 6 0 0 0 0 0 0 0 0 0
0 0 0 0 0 0 0 0 0 0 0 0 0 0 0 0 0 0 0 3 3 10 10 6 6 13 6 0 0 0 23 32 19 10 6 0 0 0 0 0 0 0 0
0 0 0 0 0 0 0 0 0 0 0 0 0 0 0 0 0 0 0 0 0 0 6 3 3 3 0 0 0 0 10 52 39 23 10 10 3 0 0 0 3 0 0
0 0 0 0 0 0 0 0 0 0 0 0 0 0 0 0 0 0 0 0 0 0 0 0 0 3 0 0 0 0 65 52 29 26 23 10 16 0 0 0 0 3 6
0 0 0 0 0 0 0 0 0 0 0 0 0 0 0 0 0 0 0 0 0 0 0 0 0 0 0 0 0 0 29 32 29 32 13 0 0 0 0 0 6 6 0
0 0 0 0 0 0 0 0 0 0 0 0 0 0 0 0 0 0 0 0 0 0 0 0 0 0 0 0 0 0 6 16 19 35 23 13 0 0 0 0 6 0 0
0 0 0 0 0 0 0 0 0 0 0 0 0 0 0 0 0 0 0 0 0 0 0 0 0 0 0 0 0 0 0 0 3 19 13 0 0 0 0 0 0 0 0
0 0 0 0 0 0 0 0 0 0 0 0 0 0 0 0 0 0 0 0 0 0 0 0 0 0 0 0 0 0 0 0 0 0 0 0 0 0 0 0 0 0 0
0 0 0 0 0 0 0 0 0 0 0 0 0 0 0 0 0 0 0 0 0 0 0 0 0 0 0 0 0 0 0 0 0 0 0 0 0 0 0 0 0 0 3
0 0 0 0 0 0 0 0 0 0 0 0 0 0 0 0 0 0 0 0 0 0 0 0 0 0 0 0 0 0 0 0 0 0 3 0 3 3 0 0 0 0 0
0 0 0 0 0 0 0 0 0 0 0 0 0 0 0 0 0 0 0 0 0 0 0 0 0 0 0 0 0 0 0 0 0 0 0 0 0 0 0 0 0 0 0
Height
5869 5870 5870 5871 5871 5872 5872 5872 5872 5872 5871 5870 5869 5868 5868 5868 5869 5869 5870 5870 5871 5871 5871 5871 5871 5872 5872 5873 5873 5873 5872 5872 5871 5871 5871 5870 5870 5869 5868 5867 5866 5866 5865
5860 5861 5862 5863 5864 5865 5865 5866 5866 5866 5865 5864 5862 5862 5861 5861 5862 5862 5863 5863 5864 5865 5865 5866 5866 5866 5867 5868 5868 5868 5867 5866 5866 5865 5865 5865 5864 5863 5863 5862 5861 5860 5859
5849 5851 5852 5854 5855 5857 5857 5858 5858 5858 5858 5857 5856 5855 5854 5854 5854 5854 5855 5856 5857 5858 5859 5860 5860 5861 5862 5862 5862 5862 5862 5861 5860 5860 5860 5859 5858 5857 5857 5856 5855 5854 5854
5839 5841 5842 5844 5845 5847 5848 5849 5850 5850 5850 5850 5849 5847 5846 5845 5845 5846 5847 5849 5850 5851 5852 5854 5854 5855 5855 5856 5856 5856 5855 5855 5854 5853 5853 5853 5852 5851 5850 5850 5849 5848 5848
5830 5831 5833 5834 5835 5837 5838 5839 5840 5841 5842 5842 5842 5840 5838 5836 5837 5838 5839 5841 5843 5844 5846 5847 5848 5849 5849 5849 5849 5849 5849 5848 5848 5847 5846 5846 5845 5844 5843 5843 5842 5842 5841
5820 5822 5823 5824 5825 5826 5828 5829 5830 5832 5833 5834 5834 5834 5831 5829 5829 5830 5831 5833 5835 5837 5838 5840 5841 5842 5843 5843 5843 5843 5843 5842 5841 5841 5840 5839 5838 5838 5837 5836 5835 5835 5834
5810 5812 5813 5815 5815 5816 5818 5819 5821 5822 5824 5825 5826 5826 5825 5823 5822 5823 5824 5825 5827 5829 5831 5833 5835 5836 5837 5837 5837 5836 5836 5835 5835 5834 5833 5832 5831 5830 5830 5829 5828 5828 5828
5801 5802 5803 5805 5806 5807 5808 5810 5812 5814 5815 5817 5817 5817 5816 5816 5815 5815 5816 5818 5820 5822 5824 5826 5828 5830 5830 5830 5830 5829 5829 5828 5828 5827 5826 5825 5824 5823 5822 5822 5821 5821 5821
5793 5793 5794 5796 5797 5798 5800 5802 5804 5806 5807 5808 5809 5808 5808 5808 5808 5809 5810 5811 5813 5815 5818 5821 5822 5823 5823 5823 5823 5822 5822 5821 5820 5820 5819 5818 5817 5816 5815 5815 5814 5814 5813
5785 5786 5786 5788 5789 5791 5793 5795 5796 5798 5799 5800 5801 5801 5801 5801 5802 5803 5804 5805 5808 5811 5813 5815 5816 5817 5817 5817 5816 5815 5815 5814 5813 5813 5812 5811 5811 5810 5809 5808 5807 5806 5807
5780 5780 5780 5782 5783 5785 5787 5788 5790 5791 5793 5793 5795 5795 5795 5795 5797 5799 5800 5802 5805 5807 5809 5809 5810 5810 5811 5810 5810 5809 5808 5807 5806 5806 5805 5805 5804 5804 5803 5802 5801 5800 5801
5776 5776 5777 5778 5779 5781 5782 5783 5784 5785 5787 5788 5790 5791 5792 5793 5794 5796 5798 5800 5801 5803 5803 5804 5804 5804 5804 5804 5803 5802 5801 5801 5800 5799 5799 5799 5798 5798 5797 5796 5796 5795 5795
5774 5774 5775 5776 5777 5778 5779 5780 5781 5783 5784 5786 5787 5788 5790 5791 5792 5793 5795 5796 5797 5798 5798 5798 5798 5798 5798 5797 5796 5796 5795 5795 5794 5793 5793 5792 5792 5792 5791 5791 5791 5791 5791
5775 5775 5775 5776 5777 5777 5779 5780 5781 5783 5784 5785 5786 5787 5788 5789 5790 5791 5792 5792 5792 5792 5792 5792 5792 5792 5791 5791 5790 5790 5789 5788 5788 5787 5786 5786 5786 5785 5785 5785 5786 5786 5786
5777 5777 5777 5778 5778 5779 5780 5782 5783 5783 5784 5785 5785 5786 5786 5787 5788 5788 5788 5788 5788 5787 5787 5786 5786 5785 5785 5784 5784 5784 5783 5782 5781 5780 5780 5780 5779 5779 5780 5780 5780 5780 5781
5780 5781 5781 5781 5781 5782 5782 5783 5784 5784 5785 5785 5785 5785 5786 5786 5785 5785 5784 5784 5783 5782 5781 5781 5780 5779 5778 5778 5777 5777 5776 5775 5774 5774 5773 5773 5773 5773 5774 5774 5774 5775 5775
5785 5785 5785 5785 5785 5785 5785 5786 5785 5785 5785 5785 5785 5785 5784 5783 5782 5781 5780 5779 5778 5777 5776 5775 5774 5773 5772 5772 5771 5770 5769 5768 5768 5767 5767 5767 5767 5767 5767 5768 5768 5769 5769
5790 5789 5789 5788 5788 5788 5788 5787 5787 5786 5786 5785 5784 5783 5782 5780 5779 5777 5776 5774 5773 5771 5770 5768 5767 5766 5766 5765 5764 5764 5763 5761 5761 5760 5761 5760 5760 5761 5761 5761 5762 5763 5763
5794 5793 5792 5792 5791 5790 5789 5788 5787 5786 5785 5784 5783 5781 5779 5777 5775 5773 5771 5769 5767 5765 5764 5762 5761 5760 5759 5759 5758 5757 5756 5755 5754 5754 5754 5754 5754 5755 5755 5755 5756 5757 5757
5798 5797 5796 5795 5794 5792 5791 5790 5788 5787 5785 5783 5781 5779 5777 5775 5772 5770 5767 5764 5762 5760 5758 5756 5755 5754 5753 5752 5751 5750 5749 5748 5748 5748 5748 5748 5748 5748 5748 5749 5750 5751 5751
5802 5800 5799 5797 5795 5794 5792 5790 5789 5787 5785 5783 5780 5778 5775 5772 5769 5766 5763 5760 5758 5755 5753 5751 5749 5748 5746 5745 5744 5743 5742 5741 5741 5741 5741 5741 5742 5742 5742 5743 5744 5745 5746
5805 5803 5801 5799 5797 5795 5793 5791 5789 5787 5785 5782 5780 5777 5774 5771 5767 5764 5760 5757 5754 5751 5749 5747 5744 5742 5741 5739 5738 5736 5735 5734 5734 5734 5734 5734 5735 5736 5737 5738 5739 5739 5740
5808 5805 5803 5801 5799 5797 5795 5793 5791 5788 5786 5783 5780 5777 5774 5770 5766 5763 5758 5755 5751 5749 5746 5744 5741 5739 5737 5734 5732 5731 5729 5728 5727 5726 5726 5727 5728 5729 5731 5732 5733 5734 5735
5810 5808 5806 5804 5801 5799 5797 5795 5793 5790 5788 5785 5782 5779 5775 5771 5767 5763 5759 5755 5752 5749 5746 5743 5740 5737 5734 5731 5729 5726 5724 5722 5721 5720 5720 5720 5722 5723 5725 5726 5728 5729 5730
5813 5811 5808 5806 5804 5802 5800 5798 5795 5793 5791 5788 5785 5781 5777 5773 5770 5765 5761 5757 5753 5750 5747 5744 5740 5737 5733 5730 5727 5723 5721 5719 5717 5716 5715 5716 5717 5718 5720 5721 5723 5724 5726
5815 5813 5811 5809 5807 5805 5803 5801 5799 5796 5794 5791 5788 5784 5781 5777 5773 5769 5764 5760 5756 5753 5749 5746 5742 5738 5735 5731 5727 5723 5720 5718 5716 5715 5714 5714 5714 5715 5717 5718 5719 5721 5722
Wind_Speed
36 36 35 34 33 32 30 28 27 27 27 27 27 26 26 25 25 25 25 25 25 24 23 22 21 21 21 21 22 22 22 22 22 21 21 21 21 22 22 22 22 23 24
39 39 39 38 37 35 33 32 30 30 30 30 31 31 29 29 29 29 28 28 28 27 25 24 23 22 22 23 23 23 24 24 24 23 23 23 24 24 23 23 23 24 25
39 39 40 40 40 39 38 36 35 34 34 34 36 36 35 33 33 33 32 31 31 29 27 26 25 24 24 24 24 24 24 25 25 25 25 26 26 26 25 25 24 25 25
35 36 37 39 39 40 40 40 39 38 37 37 38 40 41 39 37 36 34 33 32 30 28 27 26 25 25 25 24 24 25 25 26 26 26 27 28 29 27 27 26 25 25
33 33 34 35 38 40 41 42 42 41 40 40 40 43 44 43 41 38 36 34 33 31 28 27 27 26 25 25 25 25 25 25 26 26 27 27 28 29 29 29 28 27 26
33 33 33 33 35 38 40 42 43 43 42 42 42 45 46 45 43 40 38 37 34 31 28 27 26 26 25 25 25 25 24 24 25 26 27 27 27 29 29 29 29 28 27
33 33 33 33 35 37 39 41 43 43 43 43 44 46 48 47 44 44 40 37 34 31 28 26 25 24 24 25 24 24 24 24 24 25 25 26 26 26 27 28 29 29 27
30 31 32 33 35 36 37 39 41 42 42 43 43 44 45 45 43 40 37 33 31 28 24 23 22 22 23 23 23 23 23 24 24 24 24 24 25 25 25 26 28 28 28
26 28 30 31 32 33 34 35 36 38 39 40 41 42 42 41 40 34 29 29 26 21 19 20 20 21 21 22 22 22 22 23 23 23 23 23 23 24 24 25 26 27 27
20 22 24 25 26 27 29 30 31 32 34 35 36 38 37 34 31 25 21 19 16 15 16 19 19 20 21 22 22 22 22 22 23 23 22 22 22 21 22 22 23 24 25
14 16 17 18 19 20 22 24 25 26 28 27 26 25 23 19 16 14 12 11 11 14 16 17 19 20 21 21 21 21 21 22 22 22 22 22 21 21 20 20 21 22 23
6 7 9 9 11 12 13 15 15 15 15 13 12 10 8 8 7 6 7 9 12 14 16 17 18 19 20 20 20 20 20 21 21 22 22 22 21 21 20 20 20 20 21
3 3 5 5 4 5 6 7 6 6 6 5 4 4 3 3 4 5 8 10 13 14 16 17 18 19 19 19 19 19 19 20 20 21 22 22 22 21 20 20 20 20 20
8 8 8 8 8 8 8 7 6 6 5 3 1 1 3 4 6 8 10 12 13 15 16 17 18 18 19 19 20 20 20 20 21 21 21 22 22 22 21 20 21 21 20
11 11 10 9 9 9 9 7 5 4 3 2 3 4 4 5 7 8 10 12 13 15 17 18 18 19 20 20 21 21 21 21 22 22 22 22 22 22 22 21 22 22 21
13 12 11 9 9 8 7 6 5 4 4 4 4 5 6 8 9 10 12 14 15 17 18 19 19 20 21 21 22 22 22 22 22 22 22 22 22 22 23 23 23 23 23
15 14 13 12 11 9 8 7 7 6 5 6 7 8 9 10 11 13 14 16 18 19 20 21 21 22 22 22 22 22 22 23 23 23 23 23 22 22 22 23 24 24 23
16 15 14 13 11 10 9 8 8 7 7 7 8 10 11 12 14 15 16 18 19 20 21 21 22 22 22 22 22 22 23 24 23 22 22 22 22 22 22 23 23 24 24
15 14 13 12 11 10 10 9 9 9 9 10 11 12 12 13 15 16 17 19 19 20 21 22 22 23 22 22 22 22 23 23 22 22 22 22 22 22 22 22 23 23 23
15 13 12 11 11 10 10 9 9 10 10 11 11 12 13 14 15 16 17 18 19 20 20 21 21 22 22 22 22 22 22 22 22 21 21 21 21 21 22 22 22 23 23
14 13 13 12 12 11 11 10 10 10 11 11 12 13 13 14 15 16 16 16 16 16 17 18 18 19 20 21 21 22 22 23 23 22 22 21 21 21 20 21 21 21 22
14 14 13 13 13 12 12 12 12 12 12 13 13 14 14 14 14 14 14 13 12 12 13 13 14 15 17 18 19 19 20 21 22 22 21 21 21 21 20 20 20 21 22
15 15 15 15 14 14 14 14 14 14 14 15 15 15 15 15 15 15 15 13 12 11 10 10 11 12 13 14 15 16 17 18 18 19 20 20 20 20 20 20 20 20 21
16 16 16 17 17 16 16 16 16 16 17 17 18 18 18 18 18 17 17 15 14 12 11 11 11 11 11 11 11 12 13 13 14 15 16 17 17 18 18 18 19 19 19
16 16 17 17 17 17 17 17 17 17 18 18 19 20 20 20 20 19 19 18 16 15 14 13 13 13 12 12 11 10 9 9 8 9 9 11 13 14 14 15 16 16 17
15 16 16 16 17 17 17 17 17 18 18 19 20 21 21 21 21 21 20 20 19 18 17 16 16 15 15 14 14 12 11 9 7 5 4 3 5 6 8 9 10 11 11
Wind_Direction
259 260 262 264 266 267 269 271 273 276 279 281 280 278 276 272 267 260 254 252 251 251 251 252 253 256 258 260 263 269 272 276 277 281 278 277 277 277 277 278 276 273 268
259 258 259 260 261 263 263 266 268 270 274 276 277 276 274 271 267 262 256 252 250 249 250 252 253 255 256 258 263 267 271 275 276 278 279 279 279 277 274 276 277 275 271
260 259 258 257 257 259 261 263 263 265 268 270 272 272 273 270 266 263 258 253 251 248 249 253 254 255 256 260 266 269 272 275 276 275 277 278 279 279 276 276 277 276 272
262 261 260 258 256 256 256 257 259 260 263 266 268 268 268 265 263 261 259 255 251 247 248 252 255 257 259 264 268 271 273 275 276 276 276 275 277 277 277 276 277 275 272
266 264 262 260 257 255 254 253 255 256 259 261 262 263 264 264 261 259 257 254 250 246 245 250 255 260 264 267 269 272 273 274 275 275 275 275 275 274 275 276 276 275 273
268 267 265 262 258 255 253 251 252 254 256 258 260 261 262 260 258 256 257 255 251 247 246 249 254 260 264 267 271 272 273 273 274 275 275 274 274 273 274 275 275 275 273
269 267 265 263 259 256 253 250 250 252 254 256 258 258 259 260 259 256 256 255 252 251 248 250 254 259 264 268 271 272 273 273 273 274 275 275 273 273 273 273 274 275 271
268 268 265 262 259 256 253 251 250 251 253 255 259 260 261 261 264 260 255 253 249 250 248 253 256 260 265 268 270 272 272 272 273 273 273 273 272 271 271 271 271 270 266
265 266 265 262 259 257 255 254 253 253 254 256 259 261 264 263 263 261 256 250 245 245 249 252 256 261 265 268 270 271 272 272 272 272 273 273 272 271 270 270 270 267 261
263 263 261 260 258 258 257 256 255 255 256 258 257 261 264 262 258 252 244 237 233 237 245 250 256 261 266 268 269 270 272 273 272 272 272 272 272 271 270 270 271 267 257
262 263 260 258 255 256 256 256 259 259 257 256 258 259 257 248 235 230 230 229 233 243 250 256 260 263 267 271 272 273 274 274 272 271 271 271 270 270 269 270 272 265 254
251 249 247 246 246 245 245 247 249 246 241 238 238 235 227 218 219 230 243 250 252 254 258 262 266 268 271 274 275 275 276 275 274 272 271 270 270 269 268 267 270 265 256
157 169 176 186 197 196 201 203 185 177 185 186 190 197 209 229 256 267 271 269 264 265 269 270 272 275 276 277 279 279 279 278 276 273 271 269 268 268 267 265 265 266 260
115 119 125 122 116 114 122 124 116 113 122 129 141 276 296 288 287 281 279 277 274 274 274 275 276 277 278 280 280 279 279 278 276 274 271 268 266 265 265 263 262 262 260
104 103 101 103 102 102 104 97 94 79 61 34 359 340 324 302 289 287 284 281 281 281 281 281 277 278 279 280 280 279 279 278 276 273 270 267 265 264 263 261 259 259 257
88 87 87 89 91 87 78 66 56 46 29 10 347 329 318 305 295 292 289 286 285 284 283 281 279 280 281 279 279 279 279 277 275 272 270 268 265 263 261 258 257 256 255
73 73 72 70 70 72 66 53 44 32 12 350 332 322 315 308 301 297 293 290 287 284 283 283 282 281 279 278 276 277 277 276 274 272 270 267 265 263 261 258 256 254 253
68 68 67 65 61 57 49 39 29 17 1 345 334 325 317 310 305 300 295 291 289 287 286 284 283 282 281 279 277 276 275 275 274 272 269 266 264 262 261 259 256 254 253
63 62 60 57 52 46 37 27 15 4 353 343 334 326 320 314 309 303 299 296 293 290 288 286 285 283 281 280 279 277 276 275 274 271 268 265 263 262 260 258 257 255 253
56 54 52 48 43 35 27 18 8 360 352 345 339 332 326 320 315 310 305 300 296 293 290 288 286 283 282 281 279 278 276 274 272 270 269 266 264 261 259 258 257 255 254
52 51 48 44 40 35 29 21 14 8 3 357 352 347 341 334 328 322 316 309 303 300 297 293 290 287 284 283 280 278 276 274 272 270 268 265 263 262 260 258 257 256 256
50 48 47 45 42 39 35 32 29 25 20 15 9 4 358 354 349 344 338 331 324 319 314 308 303 297 292 288 285 281 278 276 273 271 267 263 261 260 258 258 257 257 256
47 48 47 46 44 44 44 44 42 38 34 28 23 19 16 14 12 9 5 360 354 347 342 335 326 317 309 301 295 291 286 281 276 272 267 262 260 258 257 257 257 257 256
47 48 48 47 47 48 49 49 47 45 42 39 36 32 30 29 27 25 23 20 17 14 9 2 355 346 337 327 317 308 299 290 283 276 269 262 259 257 255 255 256 257 257
47 48 49 49 50 51 51 51 51 48 47 44 42 39 37 36 36 35 33 32 31 29 26 21 16 11 5 359 353 343 330 318 307 294 278 264 257 254 254 255 256 256 256
47 47 48 49 50 52 52 52 51 49 48 45 43 41 39 39 38 37 37 37 37 36 34 31 28 26 24 20 17 18 16 13 7 358 337 298 266 256 255 253 254 256 256